Parc national de Yoho, Colombie-Britannique

Conditions des dernières 24 heures

Ce tableau est un sommaire des conditions météo couvrant les dernières 24 heures. Ce sommaire inclut les paramètres suivants: température, humidité, point de rosée, direction et vitesse du vent, pression barométrique, facteur de refroidissement éolien ou indice humidex.
Date / Heure
(HAR)
Conditions Temp (°C) Humidite (%) Point de rose (°C) Vent (km/h) Pression (kPa) Visibilité (km)
02 septembre 2014
22:00 N.D. 4   99 4 ENE 7 101,0 N.D.
21:00 N.D. 5 99 5 calme 101,0 N.D.
20:00 N.D. 5 98 5 calme 100,9 N.D.
19:00 N.D. 6 96 6 OSO 21 100,9 N.D.
18:00 N.D. 8 88 6 SO 6 100,8 N.D.
17:00 N.D. 9   89 7 OSO 12 100,8 N.D.
16:00 N.D. 9   81 6 O 20 100,8 N.D.
15:00 N.D. 9   81 6 OSO 14 100,9 N.D.
14:00 N.D. 9   91 7 OSO 11 100,9 N.D.
13:00 N.D. 7 94 6 SO 12 101,0 N.D.
12:00 N.D. 6 98 6 OSO 15 101,1 N.D.
11:00 N.D. 6 98 6 OSO 12 101,1 N.D.
10:00 N.D. 5 99 5 SSO 6 101,1 N.D.
9:00 N.D. 5 100 5 OSO 10 101,1 N.D.
8:00 N.D. 5 100 5 OSO 23 101,1 N.D.
7:00 N.D. 5 99 5 O 12 101,0 N.D.
6:00 N.D. 5 99 5 O 20 101,0 N.D.
5:00 N.D. 5 99 5 O 15 101,1 N.D.
4:00 N.D. 6 99 5 OSO 16 101,1 N.D.
3:00 N.D. 6 99 6 O 19 101,1 N.D.
2:00 N.D. 6 99 6 OSO 14 101,2 N.D.
1:00 N.D. 6 99 6 O 17 101,2 N.D.
0:00 N.D. 6 98 6 O 12 101,2 N.D.
01 septembre 2014
23:00 N.D. 6 98 6 ONO 13 101,3 N.D.
22:00 N.D. 7 94 6 O 16 101,3 N.D.
N.D.
non disponible
 ↑ 
température la plus haute
 ↓ 
température la plus basse

Si vous désirez plus de données historiques sur les conditions météo, s.v.p. visitez Données climatologiques en ligne.